This is the latest recevied weather packets stored in our database for station/object DL4JCP-6. If no packets are shown the sender has not sent any weather packets the latest 10 day(s).
| Time | Temp. | Humidity | Pressure | Rain* | Wind** | Luminosity | Snow |
|---|---|---|---|---|---|---|---|
| 1777555144 | 13.89° C | 40% | 1030.5 hPa | 0 mm | - | - | - |
| 1777555093 | 13.89° C | 40% | 1030.5 hPa | 0 mm | - | - | - |
| 1777554844 | 13.33° C | 39% | 1030.3 hPa | 0 mm | - | - | - |
| 1777554544 | 13.33° C | 39% | 1030.6 hPa | 0 mm | - | - | - |
| 1777554244 | 13.33° C | 38% | 1030.7 hPa | 0 mm | - | - | - |
| 1777554192 | 13.33° C | 38% | 1030.7 hPa | 0 mm | - | - | - |
| 1777553946 | 13.33° C | 38% | 1030.8 hPa | 0 mm | - | - | - |
| 1777553646 | 13.89° C | 39% | 1030.8 hPa | 0 mm | - | - | - |
| 1777553347 | 13.33° C | 41% | 1030.7 hPa | 0 mm | - | - | - |
| 1777553295 | 13.33° C | 41% | 1030.7 hPa | 0 mm | - | - | - |
| 1777553045 | 13.89° C | 41% | 1030.9 hPa | 0 mm | - | - | - |
| 1777552745 | 13.33° C | 39% | 1030.9 hPa | 0 mm | - | - | - |
| 1777552445 | 13.33° C | 39% | 1031.1 hPa | 0 mm | - | - | - |
| 1777552395 | 13.33° C | 39% | 1031.1 hPa | 0 mm | - | - | - |
| 1777552145 | 13.33° C | 39% | 1031.1 hPa | 0 mm | - | - | - |
| 1777551846 | 13.33° C | 41% | 1031.2 hPa | 0 mm | - | - | - |
| 1777551544 | 13.33° C | 37% | 1031.1 hPa | 0 mm | - | - | - |
| 1777551495 | 13.33° C | 37% | 1031.1 hPa | 0 mm | - | - | - |
| 1777551244 | 13.33° C | 44% | 1031.2 hPa | 0 mm | - | - | - |
| 1777550944 | 13.33° C | 38% | 1031.4 hPa | 0 mm | - | - | - |
| 1777550644 | 12.78° C | 37% | 1031.2 hPa | 0 mm | - | - | - |
| 1777550592 | 12.78° C | 37% | 1031.2 hPa | 0 mm | - | - | - |
| 1777550344 | 12.78° C | 39% | 1031.3 hPa | 0 mm | - | - | - |
| 1777550044 | 12.22° C | 39% | 1031.3 hPa | 0 mm | - | - | - |
| 1777549745 | 12.22° C | 38% | 1031.3 hPa | 0 mm | - | - | - |
* Rain latest hour (hover to see other rain measurements)
** Current wind speed in m/s (hover to see current wind gust speed)